Overview Statistics Trail Chart Weather Telemetry Raw packets
 

This is the latest recevied weather packets stored in our database for station/object PA5MB-15. If no packets are shown the sender has not sent any weather packets the latest 10 day(s).

<< 46 47 48 49 50 51 52 >>
Time Temp. Humidity Pressure Rain* Wind** Luminosity Snow
1777721132 22.78° C 60% 1019.2 hPa 0 mm - 58 W/m² -
1777720831 22.22° C 61% 1019.3 hPa 0 mm - 32 W/m² -
1777720521 22.22° C 60% 1019.3 hPa 0 mm - 45 W/m² -
1777720229 22.22° C 61% 1019.3 hPa 0 mm - 41 W/m² -
1777719932 23.33° C 58% 1019.3 hPa 0 mm - 52 W/m² -
1777719633 23.33° C 59% 1019.3 hPa 0 mm - 63 W/m² -
1777719333 22.78° C 60% 1019.3 hPa 0 mm - 51 W/m² -
1777719032 22.78° C 60% 1019.4 hPa 0 mm - 60 W/m² -
1777718732 22.78° C 60% 1019.4 hPa 0 mm - 34 W/m² -
1777718422 22.78° C 60% 1019.4 hPa 0 mm - 52 W/m² -
1777718123 22.22° C 61% 1019.5 hPa 0 mm - 58 W/m² -
1777717832 21.67° C 62% 1019.6 hPa 0 mm - 56 W/m² -
1777717534 21.67° C 63% 1019.6 hPa 0 mm - 54 W/m² -
1777717227 21.11° C 66% 1019.7 hPa 0 mm - 41 W/m² -
1777716933 21.11° C 66% 1019.7 hPa 0 mm - 30 W/m² -
1777716633 21.11° C 66% 1019.6 hPa 0 mm - 27 W/m² -
1777716332 21.11° C 65% 1019.7 hPa 0 mm - 26 W/m² -
1777716034 21.67° C 64% 1019.7 hPa 0 mm - 27 W/m² -
1777715726 21.67° C 64% 1019.7 hPa 0 mm - 29 W/m² -
1777715434 21.67° C 64% 1019.8 hPa 0 mm - 37 W/m² -
1777715132 21.67° C 64% 1019.8 hPa 0 mm - 24 W/m² -
1777714833 21.67° C 63% 1019.9 hPa 0 mm - 51 W/m² -
1777714534 21.67° C 63% 1019.8 hPa 0 mm - 58 W/m² -
1777714232 21.11° C 64% 1019.9 hPa 0 mm - 59 W/m² -
1777713933 21.11° C 66% 1020 hPa 0 mm - 53 W/m² -

* Rain latest hour (hover to see other rain measurements)
** Current wind speed in m/s (hover to see current wind gust speed)